| time (UTC) | temp F | wind direction | speed MPH | gust MPH | rain 1hr in | rain 24hr in | rain mn in | humidity % | barometer mb |
| 20260506220431 | 64 | 0 | 6.0 | 13.0 | 0.00 | 0.00 | 0.00 | 64 | 978.5 |
| 20260506215926 | 64 | 27 | 6.0 | 12.0 | 0.00 | 0.00 | 0.00 | 65 | 978.5 |
| 20260506215420 | 64 | 351 | 8.0 | 14.0 | 0.00 | 0.00 | 0.00 | 64 | 978.6 |
| 20260506213902 | 65 | 9 | 7.0 | 13.0 | 0.00 | 0.00 | 0.00 | 63 | 978.6 |
| 20260506212343 | 64 | 61 | 8.0 | 14.0 | 0.00 | 0.00 | 0.00 | 64 | 978.4 |
| 20260506211837 | 64 | 69 | 8.0 | 14.0 | 0.00 | 0.00 | 0.00 | 63 | 978.5 |
| 20260506211331 | 65 | 73 | 7.0 | 13.0 | 0.00 | 0.00 | 0.00 | 64 | 978.6 |
| 20260506210825 | 65 | 327 | 6.0 | 13.0 | 0.00 | 0.00 | 0.00 | 63 | 978.7 |
| 20260506210319 | 65 | 55 | 5.0 | 12.0 | 0.00 | 0.00 | 0.00 | 63 | 978.6 |
| 20260506205813 | 65 | 59 | 6.0 | 12.0 | 0.00 | 0.00 | 0.00 | 63 | 978.8 |
| 20260506205307 | 65 | 0 | 7.0 | 14.0 | 0.00 | 0.00 | 0.00 | 62 | 978.8 |
| 20260506204801 | 65 | 351 | 7.0 | 14.0 | 0.00 | 0.00 | 0.00 | 63 | 978.9 |
| 20260506204256 | 65 | 10 | 6.0 | 14.0 | 0.00 | 0.00 | 0.00 | 64 | 979.1 |
| 20260506203750 | 65 | 19 | 5.0 | 13.0 | 0.00 | 0.00 | 0.00 | 63 | 979.1 |
| 20260506202737 | 65 | 0 | 5.0 | 13.0 | 0.00 | 0.00 | 0.00 | 62 | 979.1 |
| 20260506202232 | 65 | 46 | 5.0 | 13.0 | 0.00 | 0.00 | 0.00 | 63 | 979.1 |
| 20260506200713 | 65 | 0 | 4.0 | 8.0 | 0.00 | 0.00 | 0.00 | 62 | 979.1 |
| 20260506200207 | 64 | 0 | 5.0 | 12.0 | 0.00 | 0.00 | 0.00 | 64 | 979.0 |
| 20260506195702 | 64 | 0 | 5.0 | 12.0 | 0.00 | 0.00 | 0.00 | 63 | 978.9 |
| 20260506195157 | 65 | 0 | 5.0 | 11.0 | 0.00 | 0.00 | 0.00 | 63 | 978.7 |
| 20260506194649 | 65 | 175 | 5.0 | 11.0 | 0.00 | 0.00 | 0.00 | 63 | 978.8 |
| 20260506193637 | 64 | 0 | 6.0 | 16.0 | 0.00 | 0.00 | 0.00 | 63 | 978.5 |
| 20260506193131 | 64 | 0 | 7.0 | 16.0 | 0.00 | 0.00 | 0.00 | 63 | 978.3 |
| 20260506192626 | 63 | 109 | 8.0 | 15.0 | 0.00 | 0.00 | 0.00 | 64 | 978.5 |
| 20260506192126 | 63 | 344 | 7.0 | 13.0 | 0.00 | 0.00 | 0.00 | 64 | 978.5 |
| 20260506191626 | 63 | 118 | 8.0 | 15.0 | 0.00 | 0.00 | 0.00 | 64 | 978.6 |
| 20260506191126 | 62 | 355 | 8.0 | 15.0 | 0.00 | 0.00 | 0.00 | 65 | 978.6 |
| 20260506190626 | 62 | 82 | 6.0 | 14.0 | 0.00 | 0.00 | 0.00 | 64 | 978.7 |
| 20260506190125 | 62 | 117 | 6.0 | 14.0 | 0.00 | 0.00 | 0.00 | 64 | 978.8 |
| 20260506185624 | 62 | 120 | 7.0 | 14.0 | 0.00 | 0.00 | 0.00 | 65 | 978.8 |
| 20260506185124 | 62 | 107 | 7.0 | 14.0 | 0.00 | 0.00 | 0.00 | 65 | 978.8 |
| 20260506184623 | 62 | 94 | 7.0 | 14.0 | 0.00 | 0.00 | 0.00 | 65 | 978.6 |
| 20260506184122 | 62 | 67 | 7.0 | 15.0 | 0.00 | 0.00 | 0.00 | 65 | 978.5 |
| 20260506183122 | 62 | 78 | 11.0 | 19.0 | 0.00 | 0.00 | 0.00 | 65 | 978.5 |
| 20260506182621 | 62 | 0 | 10.0 | 19.0 | 0.00 | 0.00 | 0.00 | 64 | 978.6 |
| 20260506182122 | 62 | 99 | 9.0 | 20.0 | 0.00 | 0.00 | 0.00 | 64 | 978.8 |
| 20260506180618 | 61 | 70 | 8.0 | 16.0 | 0.00 | 0.00 | 0.00 | 65 | 978.9 |
| 20260506175618 | 61 | 120 | 8.0 | 16.0 | 0.00 | 0.00 | 0.00 | 66 | 979.1 |
| 20260506175117 | 62 | 121 | 7.0 | 16.0 | 0.00 | 0.00 | 0.00 | 65 | 979.0 |
| 20260506174618 | 62 | 0 | 6.0 | 15.0 | 0.00 | 0.00 | 0.00 | 66 | 979.2 |
| 20260506173117 | 60 | 62 | 7.0 | 15.0 | 0.00 | 0.00 | 0.00 | 67 | 979.4 |
| 20260506172117 | 59 | 17 | 8.0 | 15.0 | 0.00 | 0.00 | 0.00 | 67 | 979.4 |
| 20260506171118 | 59 | 29 | 9.0 | 16.0 | 0.00 | 0.00 | 0.00 | 68 | 979.4 |
| 20260506170118 | 58 | 26 | 9.0 | 17.0 | 0.00 | 0.00 | 0.00 | 68 | 979.3 |
| 20260506165617 | 58 | 39 | 8.0 | 17.0 | 0.00 | 0.00 | 0.00 | 68 | 979.2 |
| 20260506165118 | 58 | 355 | 8.0 | 14.0 | 0.00 | 0.00 | 0.00 | 68 | 979.4 |
| 20260506164617 | 58 | 57 | 9.0 | 16.0 | 0.00 | 0.00 | 0.00 | 68 | 979.3 |
| 20260506164110 | 58 | 14 | 8.0 | 16.0 | 0.00 | 0.00 | 0.00 | 69 | 979.3 |
| 20260506163604 | 57 | 51 | 7.0 | 15.0 | 0.00 | 0.00 | 0.00 | 70 | 979.5 |
| 20260506163058 | 56 | 49 | 9.0 | 15.0 | 0.00 | 0.00 | 0.00 | 70 | 979.2 |
| 20260506162047 | 56 | 51 | 7.0 | 14.0 | 0.00 | 0.00 | 0.00 | 71 | 979.4 |
| 20260506161540 | 56 | 0 | 5.0 | 12.0 | 0.00 | 0.00 | 0.00 | 71 | 979.8 |
| 20260506160023 | 55 | 44 | 4.0 | 10.0 | 0.00 | 0.00 | 0.00 | 72 | 980.1 |
| 20260506155517 | 55 | 342 | 2.0 | 7.0 | 0.00 | 0.00 | 0.00 | 72 | 980.2 |
| 20260506154504 | 54 | 82 | 1.0 | 7.0 | 0.00 | 0.00 | 0.00 | 71 | 980.7 |
| 20260506153958 | 55 | 55 | 2.0 | 8.0 | 0.00 | 0.00 | 0.00 | 72 | 980.7 |
| 20260506152947 | 54 | 15 | 6.0 | 13.0 | 0.00 | 0.00 | 0.00 | 72 | 979.9 |
| 20260506152440 | 54 | 36 | 6.0 | 12.0 | 0.00 | 0.00 | 0.00 | 72 | 979.8 |
| 20260506151934 | 54 | 355 | 5.0 | 12.0 | 0.00 | 0.00 | 0.00 | 72 | 979.9 |
| 20260506151427 | 54 | 16 | 5.0 | 10.0 | 0.00 | 0.00 | 0.00 | 73 | 979.9 |
| 20260506150920 | 54 | 66 | 6.0 | 12.0 | 0.00 | 0.00 | 0.00 | 73 | 979.6 |
| 20260506150414 | 54 | 41 | 6.0 | 13.0 | 0.00 | 0.00 | 0.00 | 73 | 979.7 |
| 20260506145908 | 54 | 0 | 4.0 | 13.0 | 0.00 | 0.00 | 0.00 | 74 | 979.7 |
| 20260506144856 | 53 | 42 | 6.0 | 14.0 | 0.00 | 0.00 | 0.00 | 74 | 979.8 |
| 20260506144351 | 53 | 344 | 5.0 | 10.0 | 0.00 | 0.00 | 0.00 | 75 | 979.7 |
| 20260506143845 | 53 | 22 | 5.0 | 10.0 | 0.00 | 0.00 | 0.00 | 75 | 979.8 |
| 20260506143338 | 53 | 12 | 6.0 | 13.0 | 0.00 | 0.00 | 0.00 | 76 | 979.5 |
| 20260506142832 | 53 | 9 | 6.0 | 13.0 | 0.00 | 0.00 | 0.00 | 76 | 979.5 |
| 20260506142326 | 53 | 9 | 4.0 | 11.0 | 0.00 | 0.00 | 0.00 | 76 | 979.6 |
| 20260506141822 | 53 | 44 | 4.0 | 9.0 | 0.00 | 0.00 | 0.00 | 75 | 979.6 |
| 20260506141315 | 53 | 53 | 7.0 | 14.0 | 0.00 | 0.00 | 0.00 | 74 | 979.4 |
| 20260506135756 | 53 | 51 | 6.0 | 16.0 | 0.00 | 0.00 | 0.00 | 75 | 979.0 |
| 20260506135250 | 53 | 32 | 6.0 | 12.0 | 0.00 | 0.00 | 0.00 | 75 | 979.0 |
| 20260506133733 | 53 | 26 | 5.0 | 12.0 | 0.00 | 0.00 | 0.00 | 75 | 978.8 |
| 20260506133227 | 53 | 52 | 6.0 | 11.0 | 0.00 | 0.00 | 0.00 | 75 | 978.7 |
| 20260506132721 | 52 | 9 | 6.0 | 12.0 | 0.00 | 0.00 | 0.00 | 75 | 978.7 |
| 20260506132214 | 52 | 53 | 6.0 | 12.0 | 0.00 | 0.00 | 0.00 | 76 | 978.6 |
| 20260506131708 | 52 | 69 | 6.0 | 14.0 | 0.00 | 0.00 | 0.00 | 76 | 978.6 |
| 20260506131202 | 52 | 57 | 8.0 | 14.0 | 0.00 | 0.00 | 0.00 | 76 | 978.4 |
| 20260506130657 | 52 | 29 | 7.0 | 14.0 | 0.00 | 0.00 | 0.00 | 76 | 978.4 |
| 20260506130150 | 52 | 74 | 5.0 | 11.0 | 0.00 | 0.00 | 0.00 | 77 | 978.4 |
| 20260506125645 | 52 | 34 | 5.0 | 10.0 | 0.00 | 0.00 | 0.00 | 77 | 978.3 |
| 20260506125139 | 52 | 54 | 4.0 | 10.0 | 0.00 | 0.00 | 0.00 | 77 | 978.3 |
| 20260506124633 | 52 | 0 | 4.0 | 10.0 | 0.00 | 0.00 | 0.00 | 77 | 978.0 |
| 20260506123621 | 51 | 32 | 6.0 | 13.0 | 0.00 | 0.00 | 0.00 | 78 | 977.9 |
| 20260506123115 | 51 | 27 | 5.0 | 11.0 | 0.00 | 0.00 | 0.00 | 78 | 977.7 |
| 20260506122103 | 51 | 32 | 6.0 | 15.0 | 0.00 | 0.00 | 0.00 | 79 | 977.9 |
| 20260506121558 | 51 | 0 | 7.0 | 14.0 | 0.00 | 0.00 | 0.00 | 80 | 977.9 |
| 20260506120545 | 51 | 325 | 6.0 | 18.0 | 0.00 | 0.00 | 0.00 | 80 | 977.9 |
| 20260506120039 | 51 | 0 | 6.0 | 11.0 | 0.00 | 0.00 | 0.00 | 80 | 977.9 |
| 20260506115533 | 51 | 14 | 8.0 | 14.0 | 0.00 | 0.00 | 0.00 | 80 | 977.8 |
| 20260506115027 | 51 | 351 | 8.0 | 14.0 | 0.00 | 0.00 | 0.00 | 81 | 977.6 |
| 20260506114015 | 51 | 23 | 7.0 | 14.0 | 0.00 | 0.00 | 0.00 | 81 | 977.6 |
| 20260506113003 | 51 | 0 | 7.0 | 14.0 | 0.00 | 0.00 | 0.00 | 81 | 977.4 |
| 20260506112457 | 51 | 13 | 8.0 | 14.0 | 0.00 | 0.00 | 0.00 | 81 | 977.4 |
| 20260506111951 | 51 | 32 | 9.0 | 14.0 | 0.00 | 0.00 | 0.00 | 81 | 977.2 |
| 20260506111444 | 51 | 355 | 8.0 | 14.0 | 0.00 | 0.00 | 0.00 | 81 | 977.2 |
| 20260506110938 | 51 | 0 | 7.0 | 12.0 | 0.00 | 0.00 | 0.00 | 81 | 977.1 |
| 20260506110432 | 51 | 11 | 7.0 | 13.0 | 0.00 | 0.00 | 0.00 | 80 | 977.2 |
| 20260506105926 | 51 | 19 | 6.0 | 13.0 | 0.00 | 0.00 | 0.00 | 80 | 977.1 |
| 20260506105420 | 51 | 20 | 8.0 | 15.0 | 0.00 | 0.00 | 0.00 | 80 | 977.1 |
| 20260506104915 | 51 | 32 | 11.0 | 17.0 | 0.00 | 0.00 | 0.00 | 80 | 977.1 |
| 20260506104409 | 51 | 0 | 10.0 | 17.0 | 0.00 | 0.00 | 0.00 | 79 | 977.1 |
| 20260506103356 | 51 | 13 | 9.0 | 18.0 | 0.00 | 0.00 | 0.00 | 79 | 977.0 |
| 20260506102850 | 51 | 20 | 9.0 | 18.0 | 0.00 | 0.00 | 0.00 | 79 | 976.9 |
| 20260506102344 | 51 | 0 | 8.0 | 17.0 | 0.00 | 0.00 | 0.00 | 79 | 977.1 |
| 20260506101842 | 52 | 355 | 8.0 | 15.0 | 0.00 | 0.00 | 0.00 | 78 | 977.2 |
| 20260506101343 | 52 | 341 | 7.0 | 13.0 | 0.00 | 0.00 | 0.00 | 78 | 976.9 |
| 20260506100840 | 52 | 315 | 8.0 | 15.0 | 0.00 | 0.00 | 0.00 | 77 | 976.7 |
| 20260506100341 | 52 | 17 | 8.0 | 15.0 | 0.00 | 0.00 | 0.00 | 77 | 976.6 |
| 20260506095840 | 52 | 0 | 8.0 | 14.0 | 0.00 | 0.00 | 0.00 | 77 | 976.6 |
| 20260506095341 | 52 | 342 | 9.0 | 15.0 | 0.00 | 0.00 | 0.00 | 77 | 976.6 |
| 20260506094841 | 52 | 19 | 9.0 | 18.0 | 0.00 | 0.00 | 0.00 | 77 | 976.6 |
| 20260506094341 | 52 | 19 | 10.0 | 18.0 | 0.00 | 0.00 | 0.00 | 77 | 976.5 |
| 20260506093841 | 52 | 17 | 11.0 | 18.0 | 0.00 | 0.00 | 0.00 | 76 | 976.3 |
| 20260506093341 | 52 | 341 | 10.0 | 17.0 | 0.00 | 0.00 | 0.00 | 76 | 976.2 |
| 20260506092840 | 53 | 22 | 8.0 | 17.0 | 0.00 | 0.00 | 0.00 | 76 | 976.1 |
| 20260506092336 | 53 | 13 | 7.0 | 12.0 | 0.00 | 0.00 | 0.00 | 76 | 976.0 |
| 20260506091837 | 53 | 0 | 7.0 | 12.0 | 0.00 | 0.00 | 0.00 | 75 | 975.9 |
| 20260506091336 | 53 | 347 | 6.0 | 11.0 | 0.00 | 0.00 | 0.00 | 75 | 975.8 |
| 20260506090836 | 53 | 13 | 7.0 | 12.0 | 0.00 | 0.00 | 0.00 | 75 | 975.7 |
| 20260506085837 | 53 | 355 | 6.0 | 13.0 | 0.00 | 0.00 | 0.00 | 75 | 975.6 |
| 20260506085336 | 53 | 350 | 5.0 | 11.0 | 0.00 | 0.00 | 0.00 | 75 | 975.7 |
| 20260506084836 | 53 | 355 | 6.0 | 12.0 | 0.00 | 0.00 | 0.00 | 75 | 975.5 |
| 20260506084337 | 53 | 355 | 7.0 | 12.0 | 0.00 | 0.00 | 0.00 | 75 | 975.4 |
| 20260506083832 | 53 | 0 | 6.0 | 13.0 | 0.00 | 0.00 | 0.00 | 74 | 975.5 |
| 20260506083332 | 53 | 15 | 5.0 | 13.0 | 0.00 | 0.00 | 0.00 | 74 | 975.5 |
| 20260506082833 | 53 | 27 | 6.0 | 13.0 | 0.00 | 0.00 | 0.00 | 74 | 975.6 |
| 20260506082333 | 53 | 30 | 7.0 | 13.0 | 0.00 | 0.00 | 0.00 | 74 | 975.5 |
| 20260506081833 | 53 | 36 | 7.0 | 15.0 | 0.00 | 0.00 | 0.00 | 74 | 975.5 |
| 20260506080832 | 54 | 346 | 7.0 | 12.0 | 0.00 | 0.00 | 0.00 | 74 | 975.5 |
| 20260506080336 | 54 | 0 | 7.0 | 13.0 | 0.00 | 0.00 | 0.00 | 74 | 975.4 |
| 20260506073314 | 54 | 21 | 6.0 | 13.0 | 0.00 | 0.00 | 0.00 | 74 | 975.3 |
| 20260506072808 | 54 | 17 | 6.0 | 13.0 | 0.00 | 0.00 | 0.00 | 74 | 975.3 |
| 20260506072305 | 54 | 355 | 7.0 | 14.0 | 0.00 | 0.00 | 0.00 | 74 | 975.4 |
| 20260506071756 | 54 | 47 | 8.0 | 14.0 | 0.00 | 0.00 | 0.00 | 74 | 975.3 |
| 20260506070238 | 54 | 15 | 6.0 | 10.0 | 0.00 | 0.00 | 0.00 | 74 | 975.0 |
| 20260506062150 | 55 | 27 | 6.0 | 11.0 | 0.00 | 0.00 | 0.00 | 75 | 975.2 |
| 20260506061644 | 55 | 9 | 6.0 | 12.0 | 0.00 | 0.00 | 0.00 | 75 | 975.2 |
| 20260506061139 | 55 | 32 | 6.0 | 12.0 | 0.00 | 0.00 | 0.00 | 75 | 975.1 |
| 20260506060631 | 55 | 329 | 5.0 | 11.0 | 0.00 | 0.00 | 0.00 | 76 | 975.2 |
| 20260506060126 | 55 | 48 | 4.0 | 11.0 | 0.00 | 0.00 | 0.00 | 76 | 975.2 |
| 20260506051026 | 56 | 36 | 6.0 | 12.0 | 0.00 | 0.00 | 0.00 | 75 | 975.2 |
| 20260506050519 | 56 | 350 | 6.0 | 12.0 | 0.00 | 0.00 | 0.00 | 75 | 975.3 |
| 20260506045002 | 56 | 30 | 7.0 | 15.0 | 0.00 | 0.00 | 0.00 | 75 | 975.3 |
| 20260506043951 | 56 | 15 | 8.0 | 16.0 | 0.00 | 0.00 | 0.00 | 75 | 975.3 |
| 20260506043445 | 56 | 22 | 6.0 | 15.0 | 0.00 | 0.00 | 0.00 | 75 | 975.3 |
| 20260506042939 | 56 | 13 | 7.0 | 13.0 | 0.00 | 0.00 | 0.00 | 75 | 975.4 |
| 20260506042433 | 56 | 355 | 8.0 | 17.0 | 0.00 | 0.00 | 0.00 | 76 | 975.4 |
| 20260506041926 | 56 | 343 | 8.0 | 17.0 | 0.00 | 0.00 | 0.00 | 76 | 975.2 |
| 20260506041420 | 56 | 14 | 7.0 | 16.0 | 0.00 | 0.00 | 0.00 | 76 | 975.3 |
| 20260506040914 | 56 | 59 | 8.0 | 15.0 | 0.00 | 0.00 | 0.00 | 76 | 975.2 |
| 20260506040409 | 56 | 55 | 9.0 | 15.0 | 0.00 | 0.00 | 0.00 | 76 | 975.2 |
| 20260506035903 | 56 | 0 | 8.0 | 14.0 | 0.00 | 0.00 | 0.00 | 76 | 975.2 |
| 20260506035357 | 57 | 62 | 8.0 | 15.0 | 0.00 | 0.00 | 0.00 | 76 | 975.0 |
| 20260506034855 | 57 | 63 | 7.0 | 15.0 | 0.00 | 0.00 | 0.00 | 77 | 975.0 |
| 20260506034355 | 57 | 45 | 8.0 | 15.0 | 0.00 | 0.00 | 0.00 | 77 | 975.1 |
| 20260506033853 | 57 | 107 | 10.0 | 15.0 | 0.00 | 0.00 | 0.00 | 77 | 975.1 |
| 20260506033353 | 57 | 0 | 9.0 | 17.0 | 0.00 | 0.00 | 0.00 | 77 | 975.1 |
| 20260506032852 | 57 | 65 | 8.0 | 17.0 | 0.00 | 0.00 | 0.00 | 78 | 974.9 |
| 20260506031854 | 58 | 0 | 9.0 | 13.0 | 0.00 | 0.00 | 0.00 | 78 | 974.9 |
| 20260506031353 | 58 | 349 | 7.0 | 13.0 | 0.00 | 0.00 | 0.00 | 79 | 974.8 |
| 20260506030854 | 58 | 67 | 5.0 | 12.0 | 0.00 | 0.00 | 0.00 | 79 | 974.9 |
| 20260506030352 | 58 | 340 | 4.0 | 11.0 | 0.00 | 0.00 | 0.00 | 79 | 974.6 |
| 20260506025853 | 58 | 355 | 4.0 | 9.0 | 0.00 | 0.00 | 0.00 | 78 | 974.5 |
| 20260506025353 | 58 | 76 | 3.0 | 9.0 | 0.00 | 0.00 | 0.00 | 78 | 974.6 |
| 20260506024852 | 58 | 90 | 3.0 | 10.0 | 0.00 | 0.00 | 0.00 | 78 | 974.5 |
| 20260506023853 | 58 | 0 | 5.0 | 12.0 | 0.00 | 0.00 | 0.00 | 78 | 974.5 |
| 20260506022848 | 59 | 0 | 5.0 | 12.0 | 0.00 | 0.00 | 0.00 | 78 | 974.3 |
| 20260506022352 | 59 | 355 | 6.0 | 12.0 | 0.00 | 0.00 | 0.00 | 78 | 974.0 |
| 20260506021846 | 59 | 47 | 7.0 | 13.0 | 0.00 | 0.00 | 0.00 | 78 | 973.6 |
| 20260506021341 | 59 | 49 | 8.0 | 13.0 | 0.00 | 0.00 | 0.00 | 78 | 973.0 |
| 20260506020328 | 59 | 355 | 9.0 | 15.0 | 0.00 | 0.00 | 0.00 | 77 | 972.5 |
| 20260506015822 | 60 | 64 | 10.0 | 15.0 | 0.00 | 0.00 | 0.00 | 77 | 972.3 |
| 20260506015316 | 60 | 93 | 11.0 | 16.0 | 0.00 | 0.00 | 0.00 | 77 | 972.3 |
| 20260506014810 | 60 | 0 | 10.0 | 17.0 | 0.00 | 0.00 | 0.00 | 77 | 972.2 |
| 20260506014304 | 60 | 0 | 10.0 | 19.0 | 0.00 | 0.00 | 0.00 | 77 | 972.1 |
| 20260506013759 | 61 | 0 | 10.0 | 19.0 | 0.00 | 0.00 | 0.00 | 76 | 972.0 |
| 20260506013252 | 61 | 0 | 10.0 | 17.0 | 0.00 | 0.00 | 0.00 | 76 | 972.0 |
| 20260506012245 | 62 | 71 | 10.0 | 19.0 | 0.00 | 0.00 | 0.00 | 75 | 971.7 |
| 20260506011744 | 62 | 67 | 9.0 | 16.0 | 0.00 | 0.00 | 0.00 | 75 | 971.6 |
| 20260506011245 | 62 | 55 | 9.0 | 16.0 | 0.00 | 0.00 | 0.00 | 75 | 971.5 |
| 20260506010745 | 63 | 51 | 9.0 | 16.0 | 0.00 | 0.00 | 0.00 | 74 | 971.5 |
| 20260506010244 | 63 | 0 | 11.0 | 18.0 | 0.00 | 0.00 | 0.00 | 74 | 971.6 |
| 20260506005244 | 64 | 71 | 11.0 | 16.0 | 0.00 | 0.00 | 0.00 | 73 | 971.1 |
| 20260506004745 | 65 | 0 | 9.0 | 16.0 | 0.00 | 0.00 | 0.00 | 73 | 971.3 |
| 20260506004245 | 65 | 0 | 7.0 | 15.0 | 0.00 | 0.00 | 0.00 | 73 | 971.4 |
| 20260506003740 | 65 | 0 | 7.0 | 13.0 | 0.00 | 0.00 | 0.00 | 73 | 971.5 |
| 20260506003241 | 65 | 0 | 7.0 | 14.0 | 0.00 | 0.00 | 0.00 | 73 | 971.3 |
| 20260506002740 | 65 | 0 | 7.0 | 14.0 | 0.00 | 0.00 | 0.00 | 72 | 971.3 |
| 20260506002240 | 66 | 0 | 7.0 | 14.0 | 0.00 | 0.00 | 0.00 | 72 | 971.1 |
| 20260506001740 | 66 | 0 | 8.0 | 15.0 | 0.00 | 0.00 | 0.00 | 72 | 971.1 |
| 20260506001240 | 66 | 348 | 8.0 | 16.0 | 0.00 | 0.00 | 0.00 | 72 | 971.3 |
| 20260506000740 | 66 | 0 | 8.0 | 16.0 | 0.00 | 0.00 | 0.00 | 72 | 971.0 |
| 20260506000240 | 67 | 0 | 7.0 | 16.0 | 0.00 | 0.00 | 0.00 | 72 | 971.3 |
| 20260505235740 | 67 | 0 | 6.0 | 14.0 | 0.00 | 0.00 | 0.00 | 72 | 971.1 |
| 20260505235238 | 67 | 0 | 8.0 | 14.0 | 0.00 | 0.00 | 0.00 | 71 | 971.0 |
| 20260505234739 | 67 | 0 | 9.0 | 16.0 | 0.00 | 0.00 | 0.00 | 71 | 970.8 |
| 20260505234238 | 67 | 0 | 9.0 | 16.0 | 0.00 | 0.00 | 0.00 | 71 | 971.0 |
| 20260505233738 | 67 | 330 | 9.0 | 16.0 | 0.00 | 0.00 | 0.00 | 71 | 971.1 |
| 20260505233239 | 67 | 0 | 9.0 | 18.0 | 0.00 | 0.00 | 0.00 | 70 | 971.2 |
| 20260505232239 | 67 | 0 | 9.0 | 16.0 | 0.00 | 0.00 | 0.00 | 70 | 971.0 |
| 20260505231739 | 68 | 336 | 9.0 | 15.0 | 0.00 | 0.00 | 0.00 | 69 | 970.8 |
| 20260505231238 | 68 | 0 | 9.0 | 15.0 | 0.00 | 0.00 | 0.00 | 70 | 970.9 |
| 20260505230742 | 69 | 0 | 10.0 | 21.0 | 0.00 | 0.00 | 0.00 | 69 | 970.7 |
| 20260505230242 | 70 | 0 | 10.0 | 21.0 | 0.00 | 0.00 | 0.00 | 68 | 970.8 |
| 20260505225743 | 71 | 315 | 9.0 | 21.0 | 0.00 | 0.00 | 0.00 | 68 | 970.8 |
| 20260505225242 | 71 | 347 | 7.0 | 16.0 | 0.00 | 0.00 | 0.00 | 68 | 970.7 |
| 20260505224737 | 71 | 307 | 7.0 | 16.0 | 0.00 | 0.00 | 0.00 | 67 | 970.7 |
| 20260505224236 | 71 | 328 | 6.0 | 16.0 | 0.00 | 0.00 | 0.00 | 68 | 970.7 |
| 20260505223736 | 71 | 329 | 8.0 | 18.0 | 0.00 | 0.00 | 0.00 | 67 | 970.7 |
| 20260505223236 | 72 | 319 | 9.0 | 19.0 | 0.00 | 0.00 | 0.00 | 67 | 970.8 |
| 20260505222736 | 72 | 327 | 8.0 | 19.0 | 0.00 | 0.00 | 0.00 | 66 | 970.7 |
| 20260505222237 | 72 | 305 | 9.0 | 18.0 | 0.00 | 0.00 | 0.00 | 68 | 970.5 |
| 20260505221737 | 73 | 344 | 9.0 | 18.0 | 0.00 | 0.00 | 0.00 | 67 | 970.4 |
| 20260505221236 | 73 | 338 | 7.0 | 16.0 | 0.00 | 0.00 | 0.00 | 66 | 970.3 |